SUPERBIRD-B3 (43271 NORAD) Tracking and Keplerian Element Data

This shows tracking and keplerian element data for the satellite.

Feedback or suggestion? Click here.




ElementValue
Catalog43271
NameSUPERBIRD-B3
Epoch Orbit2263
Epoch Day160.13382569
Epoch Year2024
RAAN284.6156
Inclination0.0065
Eccentricity9.64E-05
Argument of Perigee136.9373
Mean Anonmoly45.6252
Mean Motion1.00271432
Decay Rate-9.3E-07
L11 43271U 18033A 24160.13382569 -.00000093 00000+0 00000+0 0 9993
L22 43271 0.0065 284.6156 0000964 136.9373 45.6252 1.00271432 22630



Live tracking and technical data element details for SUPERBIRD-B3 (NORAD 43271). SUPERBIRD-B3 can be tracked NOW for your location showing map with azimuth and elevation plus other details from your city location.







IsCatalogInMostPopularTable: catalog: 43271, numindb: 2484
Update: records affected: 1



GetName: 43271 SUPERBIRD-B3

Hit Count: updated at: Tue, 17 Sep 2024 11:35:04 GMT